| time (UTC) | temp F | wind direction | speed MPH | gust MPH | rain 1hr in | rain 24hr in | rain mn in | humidity % | barometer mb |
| 20260505021543 | 51 | 226 | 3.0 | 9.0 | 0.00 | 0.37 | 0.36 | 72 | 1005.5 |
| 20260505020042 | 51 | 246 | 1.0 | 9.0 | 0.00 | 0.37 | 0.36 | 72 | 1005.3 |
| 20260505014542 | 51 | 210 | 4.0 | 13.0 | 0.00 | 0.39 | 0.36 | 72 | 1005.3 |
| 20260505013057 | 51 | 226 | 1.0 | 7.0 | 0.00 | 0.39 | 0.36 | 72 | 1005.2 |
| 20260505011539 | 51 | 243 | 1.0 | 8.0 | 0.00 | 0.39 | 0.36 | 71 | 1005.1 |
| 20260505010037 | 50 | 200 | 1.0 | 4.0 | 0.00 | 0.39 | 0.36 | 70 | 1005.1 |
| 20260505004537 | 50 | 246 | 2.0 | 9.0 | 0.00 | 0.47 | 0.36 | 69 | 1005.0 |
| 20260505003035 | 50 | 189 | 4.0 | 12.0 | 0.00 | 0.47 | 0.36 | 70 | 1004.8 |
| 20260505001534 | 50 | 225 | 2.0 | 11.0 | 0.00 | 0.47 | 0.36 | 71 | 1004.6 |
| 20260505000049 | 50 | 305 | 4.0 | 9.0 | 0.00 | 0.47 | 0.36 | 72 | 1004.6 |
| 20260504234533 | 50 | 310 | 3.0 | 13.0 | 0.00 | 0.54 | 0.36 | 72 | 1004.4 |
| 20260504233030 | 51 | 291 | 10.0 | 18.0 | 0.00 | 0.54 | 0.36 | 65 | 1004.0 |
| 20260504231527 | 53 | 182 | 4.0 | 14.0 | 0.00 | 0.54 | 0.36 | 50 | 1004.0 |
| 20260504230023 | 53 | 225 | 7.0 | 14.0 | 0.00 | 0.54 | 0.36 | 52 | 1003.4 |
| 20260504224521 | 53 | 156 | 4.0 | 10.0 | 0.00 | 0.73 | 0.36 | 54 | 1003.1 |
| 20260504223021 | 54 | 239 | 2.0 | 8.0 | 0.00 | 0.73 | 0.36 | 54 | 1003.0 |
| 20260504221520 | 55 | 233 | 3.0 | 11.0 | 0.00 | 0.73 | 0.36 | 52 | 1003.0 |
| 20260504220029 | 56 | 238 | 4.0 | 12.0 | 0.00 | 0.73 | 0.36 | 51 | 1002.9 |
| 20260504214519 | 55 | 303 | 3.0 | 17.0 | 0.00 | 0.88 | 0.36 | 52 | 1002.9 |
| 20260504213009 | 56 | 273 | 4.0 | 16.0 | 0.00 | 0.88 | 0.36 | 53 | 1002.7 |
| 20260504211510 | 55 | 261 | 6.0 | 17.0 | 0.00 | 0.88 | 0.36 | 54 | 1002.6 |
| 20260504210005 | 55 | 271 | 8.0 | 19.0 | 0.00 | 0.88 | 0.36 | 54 | 1002.4 |
| 20260504204503 | 55 | 294 | 9.0 | 21.0 | 0.00 | 0.94 | 0.36 | 54 | 1002.1 |
| 20260504203002 | 55 | 294 | 13.0 | 23.0 | 0.00 | 0.94 | 0.36 | 53 | 1002.0 |
| 20260504201621 | 55 | 294 | 9.0 | 22.0 | 0.00 | 0.94 | 0.36 | 54 | 1002.0 |
| 20260504200100 | 55 | 305 | 9.0 | 23.0 | 0.00 | 0.94 | 0.36 | 56 | 1001.7 |
| 20260504194602 | 54 | 237 | 9.0 | 21.0 | 0.00 | 0.96 | 0.36 | 58 | 1001.3 |
| 20260504193059 | 54 | 315 | 10.0 | 35.0 | 0.00 | 0.96 | 0.36 | 56 | 1001.1 |
| 20260504191600 | 55 | 318 | 7.0 | 22.0 | 0.00 | 0.96 | 0.36 | 55 | 1000.8 |
| 20260504190112 | 54 | 286 | 10.0 | 25.0 | 0.00 | 0.96 | 0.36 | 56 | 1000.6 |
| 20260504184603 | 53 | 246 | 10.0 | 28.0 | 0.00 | 0.97 | 0.36 | 59 | 1000.4 |
| 20260504183046 | 53 | 313 | 9.0 | 31.0 | 0.00 | 0.97 | 0.36 | 62 | 1000.2 |
| 20260504181547 | 52 | 298 | 10.0 | 29.0 | 0.00 | 0.97 | 0.36 | 64 | 999.9 |
| 20260504180042 | 52 | 281 | 10.0 | 32.0 | 0.00 | 0.97 | 0.36 | 68 | 999.9 |
| 20260504174537 | 51 | 275 | 7.0 | 26.0 | 0.00 | 0.97 | 0.36 | 73 | 999.6 |
| 20260504173034 | 50 | 285 | 12.0 | 32.0 | 0.00 | 0.97 | 0.36 | 73 | 999.6 |
| 20260504171533 | 50 | 297 | 9.0 | 27.0 | 0.00 | 0.97 | 0.36 | 78 | 999.1 |
| 20260504140107 | 41 | 287 | 6.0 | 21.0 | 0.06 | 0.95 | 0.35 | 96 | 995.7 |
| 20260504100113 | 36 | 280 | 6.0 | 26.0 | 0.02 | 0.77 | 0.17 | 96 | 986.1 |
| 20260504081536 | 38 | 270 | 7.0 | 25.0 | 0.02 | 0.73 | 0.13 | 97 | 980.2 |
| 20260504050001 | 39 | 214 | 0.0 | 4.0 | 0.02 | 0.65 | 0.04 | 98 | 974.6 |
| 20260504044601 | 39 | 169 | 0.0 | 2.0 | 0.02 | 0.64 | 0.03 | 98 | 974.4 |
| 20260504043115 | 39 | 169 | 0.0 | 5.0 | 0.02 | 0.63 | 0.02 | 98 | 974.0 |
| 20260504041557 | 39 | 118 | 4.0 | 8.0 | 0.02 | 0.63 | 0.02 | 98 | 974.1 |
| 20260504040055 | 39 | 103 | 4.0 | 16.0 | 0.02 | 0.62 | 0.02 | 97 | 974.4 |
| 20260504034553 | 39 | 132 | 5.0 | 19.0 | 0.02 | 0.61 | 0.01 | 97 | 975.0 |
| 20260504033054 | 39 | 120 | 8.0 | 19.0 | 0.02 | 0.61 | 0.01 | 97 | 975.7 |
| 20260504031548 | 39 | 137 | 9.0 | 19.0 | 0.01 | 0.61 | 0.00 | 97 | 976.5 |
| 20260504030041 | 39 | 116 | 8.0 | 28.0 | 0.01 | 0.61 | 0.00 | 96 | 977.0 |
| 20260504024547 | 40 | 112 | 9.0 | 21.0 | 0.00 | 0.60 | 0.60 | 96 | 978.0 |
| 20260504023034 | 40 | 171 | 6.0 | 15.0 | 0.00 | 0.60 | 0.60 | 96 | 979.0 |